Back to catalog

STARLINK-34713

AliveCommunicationsVLEO
NORAD 64906·PAYLOAD·🇺🇸 United States

Launched Jul 26, 2025 from Cape Canaveral Space Force Station

Loading…

Next Passes (next 24 hours)

TLE

FreshSource: CelesTrak SupGP

Epoch: Sep 14, 2026, 21:00 UTC

1 64906C 25157C   26257.87548611  .00005303  00000+0  15663-3 0  2578
2 64906  53.1579 184.1475 0001383  91.2236  70.3157 15.34398806    16

Track STARLINK-34713 in real time with AllMySat

Download on the App Store